FW0954 Weather Reports


time (UTC)temp
F
wind
direction
speed
knots
gust
knots
rain 1hr
in
rain 24hr
in
rain mn
in
humidity
%
barometer
mb
20260504010002 76 186 2.6 6.1 0.00 0.00 0.00 47 1015.5
20260504005002 76 192 2.6 8.7 0.00 0.00 0.00 45 1015.6
20260504004502 77 194 1.7 7.8 0.00 0.00 0.00 45 1015.5
20260504004003 78 185 1.7 7.8 0.00 0.00 0.00 44 1015.5
20260504003502 78 188 3.5 9.6 0.00 0.00 0.00 43 1015.5
20260504003003 79 193 3.5 9.6 0.00 0.00 0.00 42 1015.5
20260504002503 80 199 3.5 7.0 0.00 0.00 0.00 42 1015.5
20260504001502 80 189 3.5 7.0 0.00 0.00 0.00 42 1015.7
20260504001002 80 192 3.5 10.4 0.00 0.00 0.00 42 1015.7
20260504000503 80 188 4.3 10.4 0.00 0.00 0.00 41 1015.7
20260504000003 80 187 4.3 10.4 0.00 0.00 0.00 41 1015.7
20260503235502 80 188 5.2 10.4 0.00 0.00 0.00 41 1015.7
20260503235003 80 187 4.3 12.2 0.00 0.00 0.00 42 1015.7
20260503234002 81 190 4.3 13.9 0.00 0.00 0.00 41 1015.8
20260503233503 80 192 4.3 13.9 0.00 0.00 0.00 40 1015.9
20260503233003 81 192 3.5 13.9 0.00 0.00 0.00 40 1015.9
20260503232502 81 185 3.5 9.6 0.00 0.00 0.00 41 1015.9
20260503232002 81 179 3.5 9.6 0.00 0.00 0.00 41 1016.0
20260503231503 81 178 3.5 11.3 0.00 0.00 0.00 41 1015.9
20260503231002 81 189 4.3 11.3 0.00 0.00 0.00 39 1015.9
20260503230503 82 190 4.3 11.3 0.00 0.00 0.00 41 1015.9
20260503230002 81 173 3.5 11.3 0.00 0.00 0.00 40 1016.0
20260503225503 81 176 4.3 9.6 0.00 0.00 0.00 41 1015.9
20260503225002 81 193 4.3 11.3 0.00 0.00 0.00 41 1016.0
20260503224503 81 192 4.3 11.3 0.00 0.00 0.00 41 1016.1
20260503224002 82 187 4.3 11.3 0.00 0.00 0.00 41 1016.0
20260503223503 82 197 4.3 9.6 0.00 0.00 0.00 41 1016.1
20260503223003 83 204 3.5 7.8 0.00 0.00 0.00 40 1016.1
20260503222502 83 188 3.5 7.8 0.00 0.00 0.00 39 1016.1
20260503221503 84 214 1.7 7.8 0.00 0.00 0.00 39 1016.4
20260503221003 84 208 2.6 8.7 0.00 0.00 0.00 38 1016.3
20260503220003 84 235 3.5 9.6 0.00 0.00 0.00 40 1016.5
20260503215503 83 226 3.5 10.4 0.00 0.00 0.00 39 1016.4
20260503215002 84 198 3.5 10.4 0.00 0.00 0.00 38 1016.6
20260503214503 84 195 3.5 9.6 0.00 0.00 0.00 40 1016.7
20260503214003 84 196 2.6 9.6 0.00 0.00 0.00 39 1016.7
20260503213503 84 202 2.6 7.0 0.00 0.00 0.00 39 1016.8
20260503212503 83 203 4.3 10.4 0.00 0.00 0.00 37 1016.9
20260503212002 83 198 4.3 10.4 0.00 0.00 0.00 38 1017.0
20260503211503 83 200 4.3 10.4 0.00 0.00 0.00 38 1017.0
20260503210502 84 196 3.5 8.7 0.00 0.00 0.00 36 1017.2
20260503210003 84 195 3.5 8.7 0.00 0.00 0.00 35 1017.3
20260503205503 84 197 3.5 7.8 0.00 0.00 0.00 36 1017.4
20260503205002 84 192 3.5 7.8 0.00 0.00 0.00 38 1017.4
20260503204503 84 202 2.6 7.8 0.00 0.00 0.00 37 1017.5
20260503203503 84 215 3.5 11.3 0.00 0.00 0.00 36 1017.7
20260503203002 84 194 4.3 11.3 0.00 0.00 0.00 35 1017.8
20260503202002 84 203 2.6 8.7 0.00 0.00 0.00 37 1018.0
20260503201503 84 197 3.5 7.8 0.00 0.00 0.00 38 1018.1
20260503201003 84 205 2.6 9.6 0.00 0.00 0.00 37 1018.1
20260503200503 84 205 2.6 9.6 0.00 0.00 0.00 37 1018.3
20260503200003 84 191 3.5 8.7 0.00 0.00 0.00 38 1018.3
20260503195503 84 203 3.5 7.8 0.00 0.00 0.00 37 1018.4
20260503195003 84 206 3.5 9.6 0.00 0.00 0.00 37 1018.5
20260503194003 84 260 2.6 7.8 0.00 0.00 0.00 39 1018.7
20260503193003 84 258 2.6 9.6 0.00 0.00 0.00 39 1018.8
20260503192503 83 267 2.6 9.6 0.00 0.00 0.00 39 1018.9
20260503192003 84 234 2.6 7.0 0.00 0.00 0.00 41 1018.9
20260503191503 84 224 2.6 7.0 0.00 0.00 0.00 39 1019.0
20260503190502 84 217 2.6 7.8 0.00 0.00 0.00 39 1019.1
20260503190003 84 238 2.6 7.8 0.00 0.00 0.00 40 1019.2
20260503185503 83 240 3.5 8.7 0.00 0.00 0.00 41 1019.2
20260503185003 83 213 3.5 8.7 0.00 0.00 0.00 41 1019.3
20260503184003 83 239 1.7 7.0 0.00 0.00 0.00 43 1019.5
20260503183502 83 222 3.5 11.3 0.00 0.00 0.00 42 1019.6
20260503183003 83 214 2.6 11.3 0.00 0.00 0.00 42 1019.8
20260503182503 83 223 1.7 7.8 0.00 0.00 0.00 43 1019.9
20260503182004 83 208 1.7 7.0 0.00 0.00 0.00 43 1019.9
20260503181504 83 234 1.7 6.1 0.00 0.00 0.00 44 1020.0
20260503180003 82 247 2.6 6.1 0.00 0.00 0.00 43 1020.3
20260503175503 82 217 2.6 7.8 0.00 0.00 0.00 45 1020.3
20260503175002 82 218 2.6 7.8 0.00 0.00 0.00 45 1020.4
20260503174503 81 240 2.6 8.7 0.00 0.00 0.00 45 1020.4
20260503174003 81 216 2.6 8.7 0.00 0.00 0.00 45 1020.5
20260503173503 81 221 3.5 8.7 0.00 0.00 0.00 45 1020.5
20260503173003 80 234 2.6 7.8 0.00 0.00 0.00 45 1020.6
20260503172503 80 261 2.6 8.7 0.00 0.00 0.00 48 1020.8
20260503172003 80 280 3.5 8.7 0.00 0.00 0.00 48 1020.8
20260503171503 80 248 2.6 7.8 0.00 0.00 0.00 47 1020.8
20260503171004 80 229 2.6 7.8 0.00 0.00 0.00 47 1020.9
20260503170503 80 258 1.7 6.1 0.00 0.00 0.00 46 1021.1
20260503151003 74 253 2.6 7.8 0.00 0.00 0.00 55 1021.4
20260503150503 74 249 2.6 7.0 0.00 0.00 0.00 55 1021.4
20260503072503 59 230 0.0 0.9 0.00 0.00 0.00 70 1020.2
20260503071504 59 196 0.0 0.9 0.00 0.00 0.00 70 1020.3
20260503071003 59 200 0.0 0.9 0.00 0.00 0.00 70 1020.3
20260503070503 59 229 0.0 0.9 0.00 0.00 0.00 70 1020.4
20260503054503 61 210 0.0 0.9 0.00 0.00 0.00 67 1020.1
20260503054003 61 210 0.0 0.9 0.00 0.00 0.00 66 1020.1
20260503053503 61 210 0.0 0.9 0.00 0.00 0.00 66 1020.2
20260503052004 61 198 0.0 2.6 0.00 0.00 0.00 67 1020.0
20260503051503 61 191 0.0 2.6 0.00 0.00 0.00 67 1020.1
20260503051003 61 175 0.0 0.9 0.00 0.00 0.00 67 1020.0
20260503050504 61 173 0.0 0.9 0.00 0.00 0.00 67 1020.0
20260503050005 62 174 0.0 0.9 0.00 0.00 0.00 67 1020.0
20260503045502 62 174 0.0 0.9 0.00 0.00 0.00 66 1020.0
20260503045002 62 173 0.0 0.9 0.00 0.00 0.00 66 1020.0
20260503044502 62 173 0.0 0.9 0.00 0.00 0.00 66 1020.0
20260503044001 63 174 0.0 1.7 0.00 0.00 0.00 65 1020.0
20260503043001 63 194 0.0 2.6 0.00 0.00 0.00 65 1020.1
20260503042501 63 192 0.0 2.6 0.00 0.00 0.00 65 1019.9
20260503041501 63 181 0.9 1.7 0.00 0.00 0.00 64 1020.0
20260503041001 63 176 0.9 1.7 0.00 0.00 0.00 65 1020.1
20260503040501 63 183 0.9 2.6 0.00 0.00 0.00 65 1020.1
20260503040002 63 185 0.9 2.6 0.00 0.00 0.00 65 1020.1
20260503035501 62 178 0.0 2.6 0.00 0.00 0.00 65 1020.1
20260503035001 63 171 0.0 1.7 0.00 0.00 0.00 65 1020.0
20260503034501 63 171 0.0 1.7 0.00 0.00 0.00 66 1020.1
20260503034001 63 170 0.0 0.9 0.00 0.00 0.00 65 1019.9
20260503033501 63 178 0.0 1.7 0.00 0.00 0.00 65 1019.8
20260503033001 63 179 0.0 1.7 0.00 0.00 0.00 65 1019.8
20260503032501 63 181 0.0 0.9 0.00 0.00 0.00 65 1019.9
20260503032002 62 0 0.0 0.0 0.00 0.00 0.00 65 1019.9
20260503031501 62 0 0.0 0.0 0.00 0.00 0.00 64 1019.8
20260503031002 63 0 0.0 0.0 0.00 0.00 0.00 64 1019.6
20260503030501 63 0 0.0 0.0 0.00 0.00 0.00 63 1019.6
20260503030002 63 0 0.0 0.0 0.00 0.00 0.00 61 1019.6
20260503025501 63 0 0.0 0.0 0.00 0.00 0.00 61 1019.6
20260503025002 64 0 0.0 0.0 0.00 0.00 0.00 61 1019.5
20260503024501 64 0 0.0 0.0 0.00 0.00 0.00 60 1019.4
20260503024002 64 0 0.0 0.0 0.00 0.00 0.00 60 1019.4
20260503023501 64 0 0.0 0.0 0.00 0.00 0.00 60 1019.4
20260503023002 65 0 0.0 0.0 0.00 0.00 0.00 59 1019.4
20260503022501 65 0 0.0 0.0 0.00 0.00 0.00 59 1019.3
20260503022002 65 178 0.0 0.9 0.00 0.00 0.00 58 1019.3
20260503020002 66 0 0.0 0.0 0.00 0.00 0.00 57 1019.0
20260503015001 67 0 0.0 0.0 0.00 0.00 0.00 55 1019.1
20260503014502 68 178 0.0 0.9 0.00 0.00 0.00 54 1019.1
20260503014002 68 178 0.0 0.9 0.00 0.00 0.00 53 1019.1
20260503012502 70 0 0.0 0.0 0.00 0.00 0.00 51 1019.0
20260503012002 70 0 0.0 0.0 0.00 0.00 0.00 49 1018.9
20260503011503 70 0 0.0 0.0 0.00 0.00 0.00 48 1018.8
20260503011001 71 0 0.0 0.0 0.00 0.00 0.00 46 1018.8
20260503010502 72 0 0.0 0.0 0.00 0.00 0.00 45 1018.7